Location: Millers Ferry
(32.0990°N, 87.3680°W)
Time: 15:19:26
(UTC-06:00)

CSL-04 Rocket - Visible Passes

Search period start: 26 November 2014 00:00
Search period end: 06 December 2014 00:00
Orbit: 807 x 860 km, 98.9° (Epoch: 25 November)

Date Brightness Start Highest point End Pass type
(mag) Time Alt. Az. Time Alt. Az. Time Alt. Az.
26 Nov 5.1 03:37:07 10° NNE 03:42:00 34° E 03:46:52 10° SSE visible
26 Nov 4.6 05:17:50 10° NNW 05:22:11 24° WNW 05:26:21 10° WSW visible
27 Nov 5.7 03:20:54 10° NE 03:25:05 23° E 03:29:22 10° SSE visible
27 Nov 4.2 05:00:37 10° N 05:05:31 35° WNW 05:10:17 10° SW visible
28 Nov 6.2 03:05:05 10° ENE 03:08:06 16° E 03:11:23 10° SE visible
28 Nov 3.7 04:43:34 10° N 04:48:50 51° WNW 04:53:58 10° SSW visible
29 Nov 3.5 04:26:41 10° N 04:32:06 75° WNW 04:37:25 10° SSW visible
30 Nov 3.7 04:09:55 10° NNE 04:15:20 75° ESE 04:20:40 10° S visible
30 Nov 5.3 05:53:15 10° NW 05:55:06 11° WNW 05:56:36 10° W visible
01 Dec 4.4 03:53:18 10° NNE 03:58:31 50° E 04:03:41 10° S visible
01 Dec 5.0 05:35:01 10° NNW 05:38:30 17° WNW 05:41:43 10° WSW visible
02 Dec 5.1 03:36:51 10° NE 03:41:39 34° E 03:46:28 10° SSE visible
02 Dec 4.6 05:17:31 10° NNW 05:21:51 24° WNW 05:26:01 10° WSW visible
03 Dec 5.7 03:20:38 10° NE 03:24:44 23° E 03:28:57 10° SSE visible
03 Dec 4.1 05:00:18 10° N 05:05:11 35° WNW 05:09:56 10° SW visible
04 Dec 6.2 03:04:52 10° ENE 03:07:45 15° E 03:10:55 10° SE visible
04 Dec 3.7 04:43:16 10° N 04:48:29 51° WNW 04:53:36 10° SSW visible
05 Dec 3.4 04:26:22 10° N 04:31:45 76° WNW 04:37:03 10° SSW visible
